Regional Weather Roundup
Issued by NWS

Home | Current Version | Previous Version | Graphics & Text | Print | Product List | Glossary Off
Versions: 1 2 3 4 5 6 7 8 9 10 11 12 13 14 15 16 17 18 19 20 21 22 23 24 25 26 27 28 29 30 31 32 33 34 35 36 37 38 39 40 41 42 43 44 45 46 47 48 49 50

000
ASUS43 KTOP 282108
RWRKS

WEATHER ROUNDUP FOR KANSAS
NATIONAL WEATHER SERVICE GOODLAND KS
400 PM CDT THU MAY 28 2015

NOTE:  "FAIR" INDICATES FEW OR NO CLOUDS BELOW 12,000 FEET WITH NO
SIGNIFICANT WEATHER AND/OR OBSTRUCTIONS TO VISIBILITY.

KSZ001>006-013>018-027>032-041>047-282200-
NORTHWEST KANSAS

CITY           SKY/WX    TMP DP  RH WIND       PRES   REMARKS
GOODLAND       PTSUNNY   68  61  78 SE14      29.92F
HAYS           MOSUNNY   79  61  53 SE17G23   29.93F
HILL CITY      PTSUNNY   78  60  53 S14G22    29.93F
RUSSELL        MOSUNNY   78  64  61 SE18G28   29.92F
$$

KSZ061>065-074>080-084>089-282200-
SOUTHWEST KANSAS

CITY           SKY/WX    TMP DP  RH WIND       PRES   REMARKS
DODGE CITY     PTSUNNY   79  57  46 SE21G30   29.94F
ELKHART          N/A     75  58  55 S15         N/A
GARDEN CITY    PTSUNNY   77  60  55 SE26G37   29.91F
GREAT BEND     MOSUNNY   75  64  69 SE18G26   29.94F
LIBERAL        PTSUNNY   75  61  60 S15       29.96S
PRATT          MOSUNNY   79  59  50 S14G20    29.97F
$$

KSZ066>073-081>083-090>101-282200-
SOUTHEAST KANSAS

CITY           SKY/WX    TMP DP  RH WIND       PRES   REMARKS
CHANUTE        CLOUDY    74  64  71 S8        29.99F
COFFEYVILLE    CLOUDY    75  65  70 S10       29.99F
HUTCHINSON     PTSUNNY   77  63  61 S15       29.97F
MEDICINE LODGE   N/A     79  66  64 SE15G21   29.94F
NEWTON         PTSUNNY   75  61  60 S13G21    30.00F
PARSONS        CLOUDY    75  66  73 S8        30.00F
WICHITA INTL   PTSUNNY   79  63  57 S14       29.97F
WICHITA JABRA  MOSUNNY   77  63  61 S13G20    29.97F
WICHITA MCCONL MOSUNNY   77  65  65 S13G22    29.98F
WINFIELD       MOSUNNY   78  64  61 S13       29.98F
$$

KSZ007>012-019>026-033>040-048>060-102>105-282200-
NORTHEAST KANSAS

CITY           SKY/WX    TMP DP  RH WIND       PRES   REMARKS
CONCORDIA      CLOUDY    75  64  68 S15       29.94F
EMPORIA        CLOUDY    75  63  66 S14       29.98F
LAWRENCE       CLOUDY    71  64  78 SW8       30.02F
MANHATTAN      CLOUDY    75  65  70 S14G22    29.98F
MARYSVILLE     CLOUDY    72  64  78 S13G21    29.97F
OLATHE IND     CLOUDY    70  65  84 S10       30.03F
OLATHE EXE     CLOUDY    70  66  87 S8        30.02F
SALINA         MOSUNNY   78  64  61 S18       29.96F
TOPEKA BILLARD CLOUDY    73  63  70 S9        30.01F
TOPEKA FORBES  CLOUDY    74  64  71 S10       30.01F
$$



USA.gov is the U.S. government's official web portal to all federal, state and local government web resources and services.